Location: Newark
(49.2191°N, 12.6671°E)
Time: 01:46:36
(UTC+00:00)

Transit 4A - Pass Details

Date: 30 January 2020
Orbit: 872 x 973 km, 66.8° (Epoch: 19 February)

Event Time Altitude Azimuth Distance (km) Brightness Sun altitude
Rises 14:03:42 0° 318° (NW) 3,471 10.8 14.1°
Reaches altitude 10° 14:06:23 10° 310° (NW) 2,529 10.2 13.9°
Maximum altitude 14:11:32 33° 248° (WSW) 1,425 10.1 13.3°
Drops below altitude 10° 14:16:42 10° 186° (S) 2,539 11.2 12.8°
Sets 14:19:24 0° 177° (S) 3,486 11.6 12.5°
